Back to catalog

COSMOS 1275 DEB

AlivePO
NORAD 42230·DEBRIS·🇷🇺 Russia

Launched Jun 4, 1981 from Plesetsk Cosmodrome

Loading…

Next Passes (next 24 hours)

TLE

FreshSource: Space-Track

Epoch: Sep 12, 2026, 05:43 UTC

1 42230U 81053UW  26255.23852076  .00002447  00000-0  11986-2 0  9995
2 42230  82.7449 251.3977 0041728  39.2813 321.1380 14.17060944639337

Track COSMOS 1275 DEB in real time with AllMySat

Download on the App Store